• In Romania
  • List of Countries
  • For 7 days
  • Water Temperature
  • Satellite Maps
  • Weather Map
  • Weather Widgets
  • user-avatar
    Login

    Hourly Weather Malanville

    Today, 15 December, Friday

    Time Temperature Precipitation Wind Pressure Humidity
    00:00 +28°C° 0 mm 2 mps 743 mmHg 20%
    01:00 +28°C° 0 mm 2 mps 743 mmHg 20%
    02:00 +27°C° 0 mm 2 mps 743 mmHg 21%
    03:00 +27°C° 0 mm 2 mps 743 mmHg 21%
    04:00 +26°C° 0 mm 2 mps 743 mmHg 22%
    05:00 +26°C° 0 mm 3 mps 743 mmHg 22%
    06:00 +26°C° 0 mm 3 mps 744 mmHg 23%
    07:00 +28°C° 0 mm 3 mps 744 mmHg 21%
    08:00 +30°C° 0 mm 4 mps 744 mmHg 19%
    09:00 +34°C° 0 mm 4 mps 745 mmHg 17%
    10:00 +36°C° 0 mm 4 mps 744 mmHg 15%
    11:00 +38°C° 0 mm 4 mps 744 mmHg 14%
    12:00 +41°C° 0 mm 4 mps 743 mmHg 12%
    13:00 +40°C° 0 mm 3 mps 743 mmHg 11%
    14:00 +42°C° 0 mm 3 mps 742 mmHg 11%
    15:00 +42°C° 0 mm 3 mps 741 mmHg 10%
    16:00 +39°C° 0 mm 2 mps 741 mmHg 12%
    17:00 +36°C° 0 mm 2 mps 741 mmHg 13%
    18:00 +34°C° 0 mm 2 mps 741 mmHg 15%
    19:00 +32°C° 0 mm 2 mps 742 mmHg 15%
    20:00 +31°C° 0 mm 1 mps 743 mmHg 16%
    21:00 +31°C° 0 mm 1 mps 743 mmHg 17%
    22:00 +30°C° 0 mm 2 mps 743 mmHg 17%
    23:00 +30°C° 0 mm 2 mps 743 mmHg 17%

    Tomorrow, 16 December, Saturday

    Time Temperature Precipitation Wind Pressure Humidity
    00:00 +29°C° 0 mm 3 mps 743 mmHg 18%
    01:00 +28°C° 0 mm 3 mps 743 mmHg 18%
    02:00 +28°C° 0 mm 3 mps 742 mmHg 18%
    03:00 +27°C° 0 mm 3 mps 742 mmHg 19%
    04:00 +26°C° 0 mm 3 mps 742 mmHg 19%
    05:00 +26°C° 0 mm 3 mps 743 mmHg 20%
    06:00 +25°C° 0 mm 3 mps 743 mmHg 21%
    07:00 +28°C° 0 mm 4 mps 744 mmHg 18%
    08:00 +30°C° 0 mm 5 mps 744 mmHg 15%
    09:00 +34°C° 0 mm 5 mps 745 mmHg 13%
    10:00 +36°C° 0 mm 5 mps 744 mmHg 11%
    11:00 +39°C° 0 mm 5 mps 744 mmHg 10%
    12:00 +41°C° 0 mm 4 mps 743 mmHg 9%
    13:00 +42°C° 0 mm 4 mps 743 mmHg 9%
    14:00 +42°C° 0 mm 4 mps 742 mmHg 9%
    15:00 +42°C° 0 mm 3 mps 741 mmHg 9%
    16:00 +39°C° 0 mm 3 mps 741 mmHg 10%
    17:00 +37°C° 0 mm 3 mps 741 mmHg 11%
    18:00 +35°C° 0 mm 2 mps 742 mmHg 12%
    19:00 +34°C° 0 mm 2 mps 742 mmHg 12%
    20:00 +33°C° 0 mm 3 mps 743 mmHg 13%
    21:00 +31°C° 0 mm 3 mps 743 mmHg 13%
    22:00 +30°C° 0 mm 3 mps 743 mmHg 14%
    23:00 +29°C° 0 mm 3 mps 743 mmHg 14%

    Day after tomorrow, 17 December, Sunday

    Time Temperature Precipitation Wind Pressure Humidity
    00:00 +28°C° 0 mm 3 mps 743 mmHg 15%
    01:00 +28°C° 0 mm 3 mps 743 mmHg 15%
    02:00 +27°C° 0 mm 3 mps 742 mmHg 15%
    03:00 +26°C° 0 mm 3 mps 742 mmHg 15%
    04:00 +26°C° 0 mm 3 mps 742 mmHg 15%
    05:00 +25°C° 0 mm 3 mps 742 mmHg 15%
    06:00 +25°C° 0 mm 3 mps 743 mmHg 15%
    07:00 +27°C° 0 mm 3 mps 743 mmHg 13%
    08:00 +30°C° 0 mm 3 mps 744 mmHg 12%
    09:00 +33°C° 0 mm 4 mps 745 mmHg 10%
    10:00 +35°C° 0 mm 4 mps 744 mmHg 9%
    11:00 +37°C° 0 mm 3 mps 743 mmHg 9%
    12:00 +39°C° 0 mm 3 mps 743 mmHg 8%
    13:00 +40°C° 0 mm 3 mps 742 mmHg 8%
    14:00 +40°C° 0 mm 2 mps 741 mmHg 7%
    15:00 +40°C° 0 mm 2 mps 740 mmHg 7%
    16:00 +38°C° 0 mm 2 mps 741 mmHg 8%
    17:00 +36°C° 0 mm 2 mps 741 mmHg 9%
    18:00 +34°C° 0 mm 2 mps 741 mmHg 10%
    19:00 +32°C° 0 mm 2 mps 742 mmHg 11%
    20:00 +31°C° 0 mm 3 mps 743 mmHg 11%
    21:00 +30°C° 0 mm 3 mps 743 mmHg 11%
    22:00 +29°C° 0 mm 3 mps 743 mmHg 12%
    23:00 +28°C° 0 mm 3 mps 743 mmHg 12%

    18 December, Monday

    Time Temperature Precipitation Wind Pressure Humidity
    00:00 +27°C° 0 mm 3 mps 743 mmHg 12%
    01:00 +27°C° 0 mm 3 mps 743 mmHg 12%
    02:00 +26°C° 0 mm 2 mps 742 mmHg 11%
    03:00 +25°C° 0 mm 2 mps 742 mmHg 11%
    04:00 +25°C° 0 mm 2 mps 742 mmHg 11%
    05:00 +24°C° 0 mm 2 mps 743 mmHg 11%
    06:00 +24°C° 0 mm 2 mps 743 mmHg 12%
    07:00 +26°C° 0 mm 3 mps 743 mmHg 10%
    08:00 +29°C° 0 mm 3 mps 744 mmHg 9%
    09:00 +33°C° 0 mm 3 mps 744 mmHg 8%
    10:00 +35°C° 0 mm 3 mps 744 mmHg 8%
    11:00 +37°C° 0 mm 3 mps 743 mmHg 7%
    12:00 +39°C° 0 mm 2 mps 742 mmHg 7%
    13:00 +39°C° 0 mm 2 mps 742 mmHg 6%
    14:00 +40°C° 0 mm 1 mps 741 mmHg 6%
    15:00 +37°C° 0 mm 0 mps 740 mmHg 6%
    16:00 +37°C° 0 mm 1 mps 741 mmHg 7%
    17:00 +34°C° 0 mm 1 mps 741 mmHg 9%
    18:00 +31°C° 0 mm 1 mps 741 mmHg 10%
    19:00 +31°C° 0 mm 2 mps 741 mmHg 10%
    20:00 +31°C° 0 mm 2 mps 742 mmHg 10%
    21:00 +30°C° 0 mm 2 mps 742 mmHg 10%
    22:00 +29°C° 0 mm 2 mps 742 mmHg 10%
    23:00 +28°C° 0 mm 2 mps 742 mmHg 10%

    19 December, Tuesday

    Time Temperature Precipitation Wind Pressure Humidity
    00:00 +27°C° 0 mm 3 mps 742 mmHg 10%
    01:00 +27°C° 0 mm 2 mps 742 mmHg 10%
    02:00 +26°C° 0 mm 2 mps 742 mmHg 10%
    03:00 +25°C° 0 mm 2 mps 741 mmHg 10%
    04:00 +25°C° 0 mm 2 mps 742 mmHg 11%
    05:00 +24°C° 0 mm 2 mps 742 mmHg 11%
    06:00 +24°C° 0 mm 2 mps 743 mmHg 12%
    07:00 +26°C° 0 mm 2 mps 743 mmHg 10%
    08:00 +29°C° 0 mm 2 mps 744 mmHg 9%
    09:00 +32°C° 0 mm 2 mps 744 mmHg 8%
    10:00 +35°C° 0 mm 2 mps 744 mmHg 7%
    11:00 +36°C° 0 mm 1 mps 743 mmHg 6%
    12:00 +39°C° 0 mm 1 mps 743 mmHg 6%
    13:00 +40°C° 0 mm 1 mps 742 mmHg 6%
    14:00 +40°C° 0 mm 1 mps 741 mmHg 5%
    15:00 +37°C° 0 mm 0 mps 740 mmHg 5%
    16:00 +37°C° 0 mm 1 mps 741 mmHg 6%
    17:00 +34°C° 0 mm 1 mps 741 mmHg 7%
    18:00 +31°C° 0 mm 1 mps 741 mmHg 8%
    19:00 +31°C° 0 mm 2 mps 741 mmHg 8%
    20:00 +30°C° 0 mm 2 mps 742 mmHg 8%
    21:00 +30°C° 0 mm 2 mps 742 mmHg 8%
    22:00 +30°C° 0 mm 2 mps 742 mmHg 8%
    23:00 +29°C° 0 mm 2 mps 742 mmHg 8%

    20 December, Wednesday

    Time Temperature Precipitation Wind Pressure Humidity
    00:00 +29°C° 0 mm 2 mps 742 mmHg 8%
    01:00 +28°C° 0 mm 2 mps 742 mmHg 9%
    02:00 +28°C° 0 mm 2 mps 741 mmHg 9%
    03:00 +27°C° 0 mm 2 mps 741 mmHg 9%
    04:00 +26°C° 0 mm 2 mps 741 mmHg 10%
    05:00 +26°C° 0 mm 2 mps 742 mmHg 10%
    06:00 +25°C° 0 mm 2 mps 742 mmHg 11%
    07:00 +28°C° 0 mm 2 mps 743 mmHg 10%
    08:00 +30°C° 0 mm 3 mps 743 mmHg 9%
    09:00 +34°C° 0 mm 3 mps 744 mmHg 7%
    10:00 +36°C° 0 mm 3 mps 743 mmHg 7%
    11:00 +37°C° 0 mm 2 mps 743 mmHg 6%
    12:00 +39°C° 0 mm 2 mps 742 mmHg 5%
    13:00 +40°C° 0 mm 2 mps 742 mmHg 5%
    14:00 +40°C° 0 mm 2 mps 741 mmHg 6%
    15:00 +41°C° 0 mm 1 mps 740 mmHg 6%
    16:00 +37°C° 0 mm 1 mps 741 mmHg 7%
    17:00 +34°C° 0 mm 1 mps 741 mmHg 8%
    18:00 +32°C° 0 mm 1 mps 741 mmHg 9%
    19:00 +31°C° 0 mm 1 mps 742 mmHg 10%
    20:00 +31°C° 0 mm 1 mps 742 mmHg 10%
    21:00 +30°C° 0 mm 1 mps 743 mmHg 10%
    22:00 +30°C° 0 mm 2 mps 742 mmHg 11%
    23:00 +29°C° 0 mm 2 mps 742 mmHg 12%
    Show more